[[{"header":{"parameterUnit":"m.s-1","parameterCategory":1,"la1":30.2992,"la2":30.254,"lo1":-89.0895,"lo2":-89.0443,"dy":0.0025,"dx":0.0025,"nx":19,"ny":19,"refTime":"2026-03-14T21:00:00:Z","depth":0,"parameterNumber":2,"parameterNumberName":"U-component_of_WINDS"},"data":[0,0,0,5.4101,5.4103,5.4221,5.4221,5.4376,5.4377,0,0,0,0,0,0,0,0,0,0,0,5.4067,5.4068,5.41,5.4103,5.4221,5.4221,5.4376,5.4377,0,0,0,0,0,0,0,0,0,0,0,5.4066,5.4068,5.4069,5.4104,5.4221,5.4221,5.4375,5.4285,0,0,0,0,0,0,0,0,0,0,5.417,5.414,5.4067,5.4069,5.4104,5.4221,5.4222,5.4281,5.4291,5.4324,0,5.4352,0,5.4367,5.4388,5.4388,0,0,0,5.4103,5.4132,5.4162,5.4069,5.4106,5.4221,5.4168,5.4286,5.4298,5.4337,5.4355,5.436,5.437,5.4389,5.4389,5.4581,5.4582,0,0,5.4096,5.4089,5.4155,5.417,5.4151,5.4164,5.4171,5.4293,5.4312,5.4355,5.4364,5.4372,5.439,5.4391,5.458,5.4581,0,0,0,5.4078,5.4084,5.4112,5.4163,5.4184,5.4167,5.4176,5.4307,5.4316,5.4365,5.4374,5.4391,5.4393,5.4579,5.458,5.462,0,0,0,5.4074,5.4074,5.4109,5.4106,5.4182,5.4247,5.4187,5.4308,5.4322,5.4373,5.4391,5.4394,5.4578,5.458,5.4617,5.4641,0,0,0,5.4059,5.4072,5.4089,5.4105,5.4155,5.4245,5.4262,5.4311,5.4327,5.4388,5.4395,5.4577,5.4579,5.4614,5.4636,5.4691,0,0,0,5.404,5.4122,5.409,5.4184,5.4154,5.4268,5.4261,5.4346,5.4403,5.4391,5.4578,5.458,5.4613,5.4633,5.4687,5.4736,5.4755,0,0,5.4139,5.4133,5.4189,5.4164,5.4282,5.4251,5.4375,5.4434,5.4446,5.4536,5.454,5.4618,5.4636,5.469,5.4863,5.4878,0,0,0,5.4218,5.4259,5.4292,5.4346,5.4393,5.4436,5.4477,5.4499,5.4576,5.449,5.4652,5.4663,5.4695,5.4719,5.4732,5.4761,5.4591,5.459,5.459,5.4348,5.436,5.4454,5.4482,5.4534,5.4576,5.4621,5.4658,5.4654,5.4692,5.472,5.4823,5.4851,5.486,5.4891,5.4745,5.4745,5.4745,5.4745,5.4495,5.4555,5.4549,5.4639,5.4652,5.4728,5.4773,5.4768,5.4841,5.4803,5.4832,5.4791,5.4877,5.4904,5.4748,5.4748,5.4748,5.4747,5.4747,5.4582,5.4613,5.4639,5.472,5.4781,5.4806,5.4878,5.4886,5.4895,5.4924,5.4955,5.4954,5.4956,5.4938,5.4938,5.4938,5.4939,5.4939,5.4939,5.4663,5.4691,5.475,5.4808,5.4846,5.4896,5.494,5.4977,5.5021,5.5022,5.5022,5.5016,5.4882,5.4849,5.4945,5.4944,5.4943,5.4943,5.4942,5.4811,5.4779,5.487,5.4908,5.4978,5.504,5.505,5.5126,5.5158,5.5193,5.5181,5.508,5.5075,5.5065,5.5038,5.5177,5.5177,5.5177,5.5177,5.4886,5.4884,5.498,5.504,5.5099,5.5118,5.5224,5.526,5.5292,5.5313,5.5294,5.5259,5.5248,5.525,5.5235,5.5211,5.539,5.539,5.5391,5.4978,5.4983,5.507,5.5101,5.5157,5.5206,5.5306,5.5376,5.5406,5.54,5.5331,5.5322,5.5265,5.5245,5.5237,5.5215,5.517,0,0]},{"header":{"parameterUnit":"m.s-1","parameterCategory":1,"la1":30.2992,"la2":30.254,"lo1":-89.0895,"lo2":-89.0443,"dy":0.0025,"dx":0.0025,"nx":19,"ny":19,"refTime":"2026-03-14T21:00:00:Z","depth":0,"parameterNumber":3,"parameterNumberName":"V-component_of_WINDS"},"data":[0,0,0,0.1344,0.1361,0.2183,0.2186,0.321,0.3218,0,0,0,0,0,0,0,0,0,0,0,0.1078,0.1084,0.1343,0.1363,0.2182,0.2186,0.3208,0.3218,0,0,0,0,0,0,0,0,0,0,0,0.1075,0.1083,0.109,0.1366,0.2182,0.2187,0.3206,0.2598,0,0,0,0,0,0,0,0,0,0,0.1806,0.1537,0.1081,0.109,0.137,0.2181,0.2187,0.2569,0.2636,0.2824,0,0.2978,0,0.3113,0.3284,0.3288,0,0,0,0.1383,0.1481,0.1721,0.1091,0.1378,0.218,0.1818,0.2607,0.2682,0.2912,0.2993,0.3032,0.313,0.3291,0.3296,0.4286,0.4289,0,0,0.1338,0.1217,0.1669,0.1768,0.1631,0.1792,0.1844,0.2653,0.2737,0.2997,0.3056,0.3147,0.3297,0.3305,0.4283,0.4287,0,0,0,0.1194,0.1184,0.1406,0.1725,0.1874,0.1815,0.1875,0.2701,0.2783,0.3068,0.3159,0.3303,0.3315,0.4279,0.4284,0.4342,0,0,0,0.1168,0.11,0.1385,0.1319,0.1858,0.2297,0.1904,0.2726,0.2822,0.3153,0.3303,0.3325,0.4275,0.4282,0.4332,0.4394,0,0,0,0.1033,0.1085,0.1194,0.1311,0.1658,0.2287,0.2416,0.275,0.2877,0.3289,0.3327,0.4272,0.428,0.4324,0.438,0.4616,0,0,0,0.0858,0.1244,0.1193,0.166,0.165,0.2312,0.2412,0.2915,0.3274,0.3308,0.4275,0.4284,0.4321,0.4371,0.4605,0.4793,0.4858,0,0,0.1279,0.1291,0.1575,0.1553,0.219,0.2197,0.2849,0.33,0.3457,0.4002,0.4028,0.4336,0.4379,0.4613,0.5267,0.5318,0,0,0,0.1667,0.1869,0.2065,0.2395,0.2739,0.304,0.34,0.3566,0.4032,0.3708,0.4488,0.4518,0.4661,0.4757,0.48,0.4931,0.4322,0.4321,0.432,0.2096,0.2261,0.274,0.3002,0.3322,0.3682,0.3958,0.4244,0.433,0.4509,0.4674,0.5049,0.5156,0.519,0.5323,0.4785,0.4786,0.4786,0.4786,0.2728,0.304,0.3127,0.3623,0.3797,0.422,0.458,0.4623,0.5044,0.4942,0.5077,0.4951,0.524,0.5366,0.4792,0.4791,0.479,0.479,0.4789,0.3029,0.3206,0.3391,0.3877,0.4235,0.4489,0.4884,0.5032,0.5176,0.5307,0.5496,0.5496,0.5514,0.5385,0.5386,0.5388,0.5389,0.539,0.5391,0.3268,0.3474,0.3785,0.4171,0.4397,0.4714,0.5071,0.5302,0.5595,0.5672,0.5674,0.5739,0.5235,0.5105,0.5412,0.5408,0.5405,0.5404,0.5402,0.3853,0.374,0.4219,0.4443,0.4906,0.5248,0.5425,0.5878,0.6089,0.6279,0.6312,0.5914,0.5942,0.5909,0.5803,0.6273,0.6273,0.6273,0.6273,0.4107,0.4129,0.4647,0.4995,0.5354,0.5558,0.6097,0.6376,0.665,0.6791,0.6743,0.6614,0.6573,0.6627,0.6578,0.6482,0.7114,0.7115,0.7115,0.4475,0.4536,0.4965,0.5218,0.5588,0.5903,0.6413,0.6814,0.7103,0.7153,0.6905,0.6869,0.6663,0.6587,0.6638,0.6558,0.6385,0,0]}]]